Location: Houston
(29.7630°N, 95.3630°W)
Time: 15:41:55
(UTC-05:00)

Saudisat 1A - Visible Passes

Search period start: 30 April 2016 00:00
Search period end: 10 May 2016 00:00
Orbit: 563 x 631 km, 64.6° (Epoch: 30 April)

Date Brightness Start Highest point End Pass type
(mag) Time Alt. Az. Time Alt. Az. Time Alt. Az.
05 May 11.1 23:48:54 12° NNW 23:48:54 12° NNW 23:49:24 10° N visible
06 May 10.3 22:20:32 15° NNE 22:20:32 15° NNE 22:21:21 10° NNE visible
06 May 11.3 23:57:03 10° NW 23:57:03 10° NW 23:57:23 10° NW visible
07 May 8.7 22:27:38 53° NNW 22:27:38 53° NNW 22:31:35 10° NNE visible
08 May 9.3 20:55:04 10° SSE 20:58:18 20° ESE 21:01:35 10° ENE visible
08 May 9.9 22:33:38 10° WSW 22:37:30 29° WNW 22:41:27 10° N visible
09 May 8.4 21:04:17 10° S 21:08:24 40° ESE 21:12:37 10° NE visible
09 May 10.9 22:45:12 10° W 22:48:00 16° NW 22:50:49 10° NNW visible
